Preview of NWS' New Version of Forecast
This preview is not operational and should not be used for support decisions.

Regional Weather Roundup (RWR)

Issued by National Weather Service (NWS)

                            
000
ASUS46 KSEW 170910
RWRWA 

WASHINGTON REGIONAL WEATHER ROUNDUP
NATIONAL WEATHER SERVICE SEATTLE WA
200 AM PDT TUE SEP 17 2019

NOTE:"FAIR" INDICATES FEW OR NO CLOUDS BELOW 12,000 FEET WITH NO 
SIGNIFICANT WEATHER AND/OR OBSTRUCTIONS TO VISIBILITY.

WAZ507-509-555>559-171000-
SEATTLE, TACOMA, EVERETT, AND VICINITY
  
CITY           SKY/WX    TMP DP  RH WIND       PRES   REMARKS
EVERETT        CLOUDY    56  51  84 SE13      29.83F                  
BOEING FIELD   MOCLDY    57  51  80 SE12      29.84S                  
RENTON         MOCLDY    56  52  86 SE3       29.84F                  
SEATAC AIRPORT CLOUDY    57  49  74 SE12      29.84F                  
JBLM-MCCHORD   CLOUDY    56  55  98 SE7       29.84F                  
PUYALLUP       CLOUDY    55  52  88 CALM      29.86S                  
BREMERTON      CLOUDY    55  52  89 S8        29.83F                  
JBLM-FT LEWIS  CLOUDY    56  55  99 E8        29.83F                  
TACOMA NARROWS CLOUDY    55  50  83 S6        29.84F                  
$$
 
WAZ001-503-506-510-514-515-171000-
NORTH INTERIOR
  
CITY           SKY/WX    TMP DP  RH WIND       PRES   REMARKS
BELLINGHAM     MOCLDY    60  49  66 S17G25    29.78F                  
FRIDAY HARBOR  MOCLDY    55  52  89 SE10      29.78F                  
EASTSOUND      CLOUDY    59  54  82 S9G16     29.76F                  
PORT ANGELES   CLOUDY    52  52 100 CALM      29.76F                  
EDIZ HOOK      PTSUNNY   51  50  97 SE3       29.75F                  
PORT TOWNSEND  FAIR      57  54  88 S7G15     29.77F                  
NAS WHIDBEY    CLOUDY    61  52  72 SE16      29.81F                  
ARLINGTON      CLOUDY    57  51  80 SE12      29.83S                  
BURLINGTON     PTCLDY    59  52  77 SE9G15    29.80F                  
$$
 
WAZ020-022-039-040-504-511-512-171000-
SOUTHWEST INTERIOR
  
CITY           SKY/WX    TMP DP  RH WIND       PRES   REMARKS
SHELTON        CLOUDY    55  52  89 SE5       29.80F                  
OLYMPIA        CLOUDY    55  51  86 SW8       29.84F                  
CHEHALIS       MOCLDY    57  55  94 S9        29.85F                  
KELSO          CLOUDY    57  54  89 SE7       29.88S                  
VANCOUVER      MOCLDY    58  52  80 SE6       29.90R                  
SCAPPOOSE, OR  MOCLDY    53  51  93 CALM      29.89R                  
PORTLAND, OR   PTCLDY    58  52  80 SE6       29.90S                  
$$
 
WAZ021-516-517-171000-
WASHINGTON COAST
  
CITY           SKY/WX    TMP DP  RH WIND       PRES   REMARKS
FORKS          LGT RAIN  56  55  97 SE7       29.72F                  
HOQUIAM        CLOUDY    58  57  97 SE10      29.80F                  
ASTORIA, OR    CLOUDY    58  54  86 SE3       29.81F                  
$$
 
WAZ019-023-024-040-567>569-171000-
CASCADE MOUNTAINS AND COLUMBIA GORGE
  
CITY           SKY/WX    TMP DP  RH WIND       PRES   REMARKS
STAMPEDE PASS  MOCLDY    44  40  85 CALM      29.89S                  
TROUTDALE, OR  CLOUDY    55  51  86 E5        29.91S                  
HOOD RIVER, OR MOSUNNY   50  46  87 CALM      29.91S                  
THE DALLES, OR PTCLDY    51  46  83 CALM      29.91R                  
$$

WAZ026-027-041>044-520-521-171000-
EAST SLOPES
  
CITY           SKY/WX    TMP DP  RH WIND       PRES   REMARKS
OMAK           CLOUDY    57  49  74 SW7       29.83R                  
WENATCHEE      CLEAR     51  43  74 NW8       29.84R                  
ELLENSBURG     PTCLDY    49  42  77 NW5       29.86R                  
YAKIMA         MOCLDY    43  39  86 SW5       29.87R                  
SUNNYSIDE ARPT MOSUNNY   46  44  95 CALM      29.88S                  
YAKIMA TC      FAIR      46  42  85 CALM      29.86R                  
$$

WAZ028-034-035-171000-
COLUMBIA BASIN
  
CITY           SKY/WX    TMP DP  RH WIND       PRES   REMARKS
EPHRATA        PTCLDY    50  48  93 N3        29.84R                  
MOSES LAKE     CLEAR     49  46  90 S3        29.84R                  
PASCO          CLEAR     56  47  71 SW10      29.88R                  
RICHLAND ARPT  SUNNY     55  45  69 SW7       29.87                   
HERMISTON, OR  CLEAR     55  46  71 SW9       29.89R                  
$$

WAZ036>038-171000-
NORTHEAST WASHINGTON
  
CITY           SKY/WX    TMP DP  RH WIND       PRES   REMARKS
SPOKANE GEIGER CLOUDY    50  46  86 S5        29.89R                  
SPOKANE FELTS  CLOUDY    53  47  79 SW3       29.89R                  
FAIRCHILD AFB  CLOUDY    50  50 100 SW7       29.88R                  
COEURDALENE,ID CLOUDY    52  47  83 S3        29.88S                  
DEER PARK      CLOUDY    52  48  86 SW7       29.89R                  
$$

WAZ029>033-171000-
SOUTHEAST WASHINGTON
  
CITY           SKY/WX    TMP DP  RH WIND       PRES   REMARKS
PULLMAN        CLOUDY    49  47  93 CALM      29.92R                  
LEWISTON, ID   CLOUDY    56  46  69 NE3       29.90R                  
WALLA WALLA    PTCLDY    56  45  66 S14       29.91R                  
PENDLETON, OR  MOCLDY    52  44  74 S6        29.91R                  
$$